Weather observations for the past three days for
Milford Municipal Airport
Imperial (Metric)
Date Time (mdt) Wind (mph) Vis. (mi.) Weather Sky Cond. Temperature (ºF) Relative Humidity Wind Chill (°F) Heat Index (°F) Pressure Precipitation (in)
Air Dwpt 6 hour altimeter (in) sea level (mb) 1 hr 3 hr 6 hr
Max. Min.
03 19:52 S 21 G 33 10.00 Fair and Breezy CLR 71.1 23 16% 29.82 1005.2
03 18:52 S 8 10.00 Fair CLR 75.9 17.1 11% 75 29.82 1005.3
03 17:52 S 14 G 21 10.00 Fair CLR 77 17.1 79 71.1 10% 76 29.84 1005.8
03 16:52 SW 17 G 30 10.00 Fair CLR 75.9 17.1 11% 75 29.85 1006.4
03 15:52 S 13 G 24 10.00 Fair CLR 78.1 17.1 10% 77 29.88 1006.8
03 14:52 SW 22 G 28 10.00 Fair and Breezy CLR 75.9 17.1 11% 75 29.91 1007.7
03 13:52 S 13 10.00 A Few Clouds FEW120 75 19 12% 75 29.94 1008.8
03 12:52 S 9 G 20 10.00 Fair CLR 73.9 19 12% 29.97 1009.7
03 11:52 S 9 10.00 A Few Clouds FEW120 71.1 12.9 73 37.9 10% 30 1011.1
03 10:52 S 10 10.00 Partly Cloudy SCT110 71.1 16 12% 30.02 1011.6
03 09:52 S 5 10.00 Fair CLR 63 19.9 19% 30.02 1011.6
03 08:52 S 9 10.00 Fair CLR 54 18 24% 30.04 1013.0
03 07:52 S 5 10.00 Fair CLR 46 16 30% 44 30.03 1012.8
03 06:52 S 6 10.00 Fair CLR 41 17.1 38% 38 30.03 1012.9
03 05:52 Calm 10.00 Fair CLR 39.9 15.1 53.1 39.9 36% 30.02 1012.8
03 04:52 SW 9 10.00 Fair CLR 42.1 15.1 33% 37 30.03 1012.7
03 03:52 S 6 10.00 Fair CLR 46 17.1 31% 44 30.03 1012.5
03 02:52 S 7 10.00 Fair CLR 48.9 18 29% 46 30.04 1012.8
03 01:52 SW 5 10.00 Fair CLR 48.9 10.9 21% 48 30.04 1012.8
03 00:52 SW 3 10.00 Fair CLR 53.1 12 19% 30.05 1012.8
02 23:52 W 10 10.00 Fair CLR 53.1 10 75 51.1 18% 30.04 1012.8
02 22:52 S 5 10.00 Fair CLR 52 10.9 19% 30.03 1013.1
02 21:52 NW 6 10.00 Fair CLR 62.1 10.9 13% 30.02 1012.2
02 14:52 Calm 10.00 Fair CLR 71.1 12 10% 30.07 1014.5
02 13:52 Vrbl 6 10.00 Fair CLR 71.1 12 10% 30.09 1015.1
02 12:52 Calm 10.00 Fair CLR 68 12 11% 30.12 1016.5
02 11:52 Vrbl 6 G 17 10.00 Fair CLR 66.9 10.9 66.9 32 11% 30.15 1017.1
02 10:52 Vrbl 3 10.00 Fair CLR 62.1 19 19% 30.17 1018.0
02 09:52 S 5 10.00 Fair CLR 55.9 19 24% 30.17 1019.0
02 08:52 S 7 10.00 Fair CLR 48.9 19.9 32% 46 30.18 1019.4
02 07:52 S 6 10.00 Fair CLR 41 17.1 38% 38 30.18 1019.0
02 06:52 S 6 10.00 Fair CLR 32 17.1 54% 27 30.16 1019.1
02 04:52 S 6 10.00 Fair CLR 36 14 40% 32 30.16 1018.4
02 03:52 W 10 10.00 Fair CLR 41 16 36% 35 30.15 1017.9
02 02:52 SW 5 10.00 Fair CLR 39 15.1 38% 36 30.16 1018.4
02 01:52 W 9 10.00 Fair CLR 43 16 34% 38 30.16 1017.9
02 00:52 N 7 10.00 Fair CLR 41 14 33% 37 30.15 1018.2
01 23:52 NW 9 10.00 Fair CLR 46 15.1 66.9 43 29% 42 30.14 1017.5
01 22:52 NE 5 10.00 Fair CLR 48 10 21% 47 30.13 1017.1
01 21:52 N 7 10.00 Fair CLR 48 9 20% 45 30.11 1016.8
01 20:52 NW 8 10.00 Fair CLR 53.1 10 18% 30.08 1015.7
01 19:52 N 12 10.00 Fair CLR 63 12 13% 30.06 1014.9
01 18:52 N 13 10.00 Fair CLR 64.9 12.9 13% 30.06 1015.7
01 17:52 N 16 G 26 10.00 Fair CLR 66 12 68 59 12% 30.06 1015.5
01 16:52 N 16 G 23 10.00 Fair CLR 66.9 14 13% 30.06 1015.7
01 15:52 N 20 G 26 10.00 Fair CLR 66 14 13% 30.08 1015.5
01 14:52 N 13 G 28 10.00 Fair CLR 64.9 14 14% 30.1 1016.3
01 13:52 N 10 G 23 10.00 A Few Clouds FEW090 64 15.1 15% 30.1 1016.2
01 12:52 N 15 G 24 10.00 Partly Cloudy SCT085 61 21 21% 30.11 1016.6
01 11:52 NE 18 G 24 10.00 Fair CLR 61 21.9 61 30 22% 30.13 1016.9
01 10:52 N 10 10.00 Fair CLR 57.9 23 26% 30.13 1017.3
01 09:52 N 13 10.00 Fair CLR 54 21 28% 30.12 1017.4
01 08:52 N 6 10.00 Fair CLR 48 19 32% 46 30.12 1016.9
01 07:52 Calm 10.00 Fair CLR 42.1 16 35% 30.11 1016.7
01 06:52 Calm 10.00 Fair CLR 30 12.9 49% 30.08 1016.7
01 05:52 NW 3 10.00 Fair CLR 30.9 12.9 46.9 30 47% 30.07 1016.1
01 04:52 Calm 10.00 Fair CLR 30.9 12.9 47% 30.07 1016.0
01 03:52 Calm 10.00 Fair CLR 37.9 15.1 39% 30.06 1015.0
01 02:52 W 10 10.00 Fair CLR 39 15.1 38% 33 30.06 1014.9
01 01:52 NW 9 10.00 Fair CLR 42.1 16 35% 37 30.06 1014.9
01 00:52 N 8 10.00 Fair CLR 45 17.1 33% 41 30.07 1014.8
30 23:52 NW 10 10.00 Fair CLR 46 19 66 45 34% 42 30.05 1014.4
30 22:52 NW 7 10.00 Fair CLR 46 19 34% 43 30.04 1014.2
30 21:52 N 6 10.00 Fair CLR 46.9 19 33% 45 30.03 1014.0
30 20:52 N 9 10.00 Fair CLR 55 21 26% 30 1012.6
Date Time (mdt) Wind (mph) Vis. (mi.) Weather Sky Cond. Air Dwpt Max. Min. Relative Humidity Wind Chill (°F) Heat Index (°F) altimeter (in) sea level (mb) 1 hr 3 hr 6 hr
6 hour
Temperature (ºF) Pressure Precipitation (in)